Location: Hopewell Observatory
(38.8698°N, 77.6988°W)
Time: 09:57:12
(UTC-04:00)

Daily predictions for brighter satellites

Satellite Brightness Start Highest point End
(mag) Time Altitude Azimuth Time Altitude Azimuth Time Altitude Azimuth
Cosmos 1500 Rocket 3.7 21:06:18 10° S 21:10:40 83° W 21:15:07 10° N
Envisat 3.7 21:06:29 10° SE 21:11:09 38° ENE 21:15:49 10° N
ERBS 4.2 21:09:48 10° SSE 21:11:27 13° ESE 21:13:06 10° E
Tiangong 1 1.0 21:11:04 10° WSW 21:14:10 71° SSE 21:17:15 10° ENE
Cosmos 1833 4.4 21:08:52 10° SSW 21:14:34 80° WNW 21:20:17 10° NNE
NOSS 3-1 (C) 3.5 21:10:39 10° S 21:16:13 51° ESE 21:22:18 10° NE
Cosmos 2333 Rocket 4.1 21:16:50 10° N 21:20:30 17° NE 21:24:10 10° E
Cosmos 2151 3.1 21:17:50 10° S 21:21:55 55° E 21:26:03 10° NNE
Delta 2 Rocket 3.2 21:21:07 10° WSW 21:24:51 51° S 21:28:13 10° ESE
SL-23 DEB 4.3 21:20:29 10° NW 21:26:05 63° NNE 21:29:29 11° ESE
Cosmos 2058 3.6 21:22:49 10° SSE 21:26:33 35° E 21:30:19 10° NNE
H-2A R/B 4.3 21:23:07 10° SSW 21:26:38 35° W 21:30:08 10° NNW
Hubble Space Telescope 2.8 21:25:35 10° S 21:27:00 11° SSE 21:28:18 10° SE
Cosmos 2297 Rocket 4.0 21:26:59 10° ESE 21:28:07 11° E 21:29:16 10° E
Cosmos 2112 Rocket 4.1 21:23:08 10° NNW 21:28:22 67° ENE 21:33:36 10° SSE
Cosmos 2219 Rocket 3.5 21:28:07 10° N 21:32:44 25° ENE 21:37:10 11° ESE
SWAS 4.5 21:28:25 10° NNW 21:32:46 79° ENE 21:36:53 11° SSE
COSMOS 2428 3.1 21:27:27 10° NNW 21:32:58 50° ENE 21:37:58 12° SE
Nimbus 7 Rocket 4.4 21:28:44 10° NNE 21:34:33 65° ESE 21:40:22 10° S
Cosmos 1437 Rocket 3.8 21:33:38 10° NNW 21:37:17 44° W 21:40:59 10° SSW
deb Chang Zheng 4 3.6 21:33:29 10° NNE 21:37:50 88° WNW 21:42:11 10° SSW
Cosmos 2298 Rocket 4.2 21:34:46 10° S 21:39:54 52° ESE 21:45:03 10° NNE
Cosmos 304 Rocket 4.0 21:36:58 10° NNW 21:41:46 70° WSW 21:46:32 10° S
Cosmos 1726 3.2 21:38:29 10° NNE 21:41:49 29° ENE 21:44:08 16° SE
Sich 1 3.8 21:40:22 12° SSE 21:44:04 35° E 21:48:04 10° NNE
PSLV R/B 3.5 21:44:56 17° SE 21:47:01 48° ENE 21:49:58 10° N
Cosmos 1939 Rocket 3.0 21:44:00 10° S 21:47:55 72° WSW 21:51:48 10° NNW
Cosmos 1151 Rocket 3.7 21:45:01 10° NNW 21:49:14 55° W 21:53:28 10° S
Cosmos 1633 Rocket 3.6 21:46:59 13° SSE 21:50:28 38° E 21:54:31 10° NNE
CZ-4B R/B 4.0 21:45:55 10° NNE 21:50:52 41° E 21:55:24 12° SSE
Cosmos 2237 4.2 21:48:47 10° NNW 21:54:32 80° ENE 21:59:09 16° SSE
Meteor 1-4 Rocket 3.7 21:51:53 10° NNE 21:55:11 29° ENE 21:56:51 20° ESE
SPOT 5 2.8 21:51:24 13° SSE 21:55:26 79° ENE 22:00:19 10° N
DELTA 2 R/B (1) 4.2 21:50:21 10° W 21:55:33 42° SSW 21:59:15 18° SE
USA 245 3.4 21:59:33 23° E 21:59:53 24° ENE 22:01:49 10° NNE
Cosmos 2219 3.8 21:56:10 10° SW 22:01:50 61° WNW 22:07:33 10° NNE
Cosmos 1680 Rocket 4.3 21:59:05 10° NNW 22:04:07 48° WSW 22:09:08 10° S
Cosmos 292 Rocket 4.2 22:00:43 10° N 22:05:19 47° ENE 22:08:03 22° SE
MetOp-B 4.1 22:03:02 16° SSE 22:07:20 81° ENE 22:12:44 10° N
Cosmos 1805 Rocket 3.7 22:02:57 10° SSW 22:07:23 76° W 22:11:51 10° N
Cosmos 2237 Rocket 3.3 22:02:21 10° N 22:07:25 32° ENE 22:10:50 18° ESE
H-2A R/B 3.5 22:05:52 16° ESE 22:08:47 26° ENE 22:13:11 10° NNE
Cosmos 2333 4.2 22:05:18 10° NNW 22:11:04 81° ENE 22:14:59 21° SSE
Cosmos 2082 4.2 22:07:50 15° SSE 22:12:03 40° ESE 22:17:21 10° NE
DELTA 2 R/B(2) 3.5 22:12:20 10° W 22:14:02 66° N 22:14:48 33° ENE
Cosmos 1898 Rocket 3.5 22:09:32 10° SSW 22:14:42 87° WNW 22:19:57 10° NNE
Cosmos 1271 Rocket 3.0 22:11:40 10° N 22:15:26 50° ENE 22:17:01 30° SE
Cosmos 2360 Rocket 3.6 22:12:04 10° NW 22:17:02 32° WSW 22:22:00 10° SSW
Cosmos 220 Rocket 4.0 22:13:45 12° S 22:17:44 69° ESE 22:22:10 10° NNE
Cosmos 858 Rocket 4.5 22:12:48 10° SSW 22:18:00 89° WNW 22:23:14 10° NNE
CZ-4C R/B 4.2 22:18:52 25° E 22:19:40 27° ENE 22:22:39 10° NNE
Iridium 2 4.2 22:19:28 32° SE 22:20:42 43° E 22:24:23 10° NNE
SPOT 1/Viking Rocket 3.5 22:17:51 23° SSE 22:21:07 76° ENE 22:26:18 10° N
NOSS 3-1 (A) 3.7 22:15:25 10° SW 22:21:15 72° NW 22:27:45 10° NNE
NOAA 11 4.3 22:18:01 24° SE 22:21:18 61° ENE 22:26:41 10° N
Cosmos 1626 3.2 22:21:47 27° ESE 22:22:11 28° E 22:25:25 10° NNE
Cosmos 1346 4.1 22:22:51 29° E 22:22:51 29° E 22:25:16 10° NNE
H-2A R/B 3.9 22:20:07 10° SSW 22:24:03 29° W 22:27:59 10° NW
Cosmos 1703 3.2 22:23:38 29° S 22:25:29 67° E 22:29:22 10° NNE
SL-14 R/B 3.8 22:23:00 12° SSW 22:26:37 60° W 22:30:36 10° N
Cosmos 1707 Rocket 4.1 22:23:25 10° NNW 22:27:43 57° W 22:30:45 19° SSW
Cosmos 2150 Rocket 4.5 22:22:35 10° SSW 22:27:59 66° WNW 22:33:27 10° NNE
YAOGAN 6 2.9 22:27:34 27° S 22:29:21 63° W 22:32:56 10° NNW
Cosmos 1666 Rocket 4.1 22:26:00 10° SSW 22:30:19 57° W 22:34:42 10° N
OTV 4 1.1 22:27:26 10° WSW 22:29:40 39° SSW 22:29:40 39° SSW
Cosmos 1241 Rocket 4.3 22:24:50 10° SSW 22:30:57 70° ESE 22:37:10 10° NE
Terra 2.8 22:31:05 26° ESE 22:32:46 33° ENE 22:37:01 10° N
SL-08 RB Rocket 3.6 22:32:55 33° SSE 22:34:50 71° ENE 22:39:19 10° N
ATLAS 2AS CENTAUR R/B 2.9 22:36:03 10° SSW 22:43:20 67° ESE 22:51:16 10° NE
Cosmos 1470 Rocket 3.4 22:42:22 37° S 22:44:02 77° E 22:48:21 10° N
Nadezhda 1 Rocket 4.0 22:38:20 10° N 22:44:25 68° E 22:47:23 32° SSE
Cosmos 2227 Rocket 2.1 22:39:38 14° SSW 22:44:37 80° ESE 22:50:18 10° NNE
Cosmos 1933 Rocket 3.5 22:43:16 36° S 22:45:01 76° E 22:49:30 10° N
Cosmos 1300 4.5 22:44:05 10° NNW 22:47:22 27° W 22:49:47 15° SW
ERBS 3.2 22:44:29 10° WSW 22:47:54 51° NW 22:51:19 10° NNE
NOSS 0 Rocket 3.9 22:44:23 10° NNW 22:50:35 87° WSW 22:53:28 34° SSE
Tiangong 1 2.3 22:47:55 10° W 22:50:52 40° N 22:52:17 24° NE
OAO 2 Rocket 3.5 22:46:38 10° WSW 22:51:51 57° S 22:53:39 38° ESE
ATLAS 3B R/B 3.3 22:49:10 10° NNW 22:55:53 45° NE 22:59:21 25° ESE
Cosmos 1745 Rocket 4.1 22:52:10 19° SSW 22:56:45 76° W 23:02:57 10° N
SL-16 R/B 3.0 22:57:08 10° N 23:02:28 39° ENE 23:04:25 30° ESE
Lacrosse 4 Rocket 2.7 22:58:44 10° N 23:02:44 32° ENE 23:03:42 29° E
Cosmos 1709 Rocket 4.1 23:02:51 39° SE 23:04:50 54° E 23:10:46 10° NNE
DMSP B5D2-2 4.0 22:59:58 10° NNE 23:05:11 69° ESE 23:06:47 44° S
Cosmos 2333 Rocket 2.3 22:59:39 10° NNW 23:05:25 76° WSW 23:07:32 40° S
BREEZE-M TANK 4.5 22:40:01 10° WSW 23:05:39 77° NNW 23:10:21 10° ENE
ARGOS 3.8 23:03:30 27° SSW 23:06:14 50° W 23:11:28 10° NNW
Cosmos 2221 Rocket 4.4 23:04:50 10° N 23:09:02 35° ENE 23:09:20 35° E
Cosmos 1455 2.2 23:05:59 10° NNW 23:09:48 73° W 23:10:08 67° SW
Cosmos 2297 Rocket 2.1 23:07:58 26° SSW 23:11:16 89° WNW 23:16:58 10° NNE
Cosmos 1933 3.8 23:11:38 10° N 23:15:26 46° ENE 23:15:26 46° ENE
COSMOS 2455 3.1 23:10:00 10° NNW 23:15:56 58° ENE 23:17:55 40° ESE
Cosmos 2219 Rocket 2.9 23:11:33 10° NW 23:16:51 44° WSW 23:18:54 31° SSW
NOSS 2-3 (E) 4.1 23:18:12 51° ESE 23:18:12 51° ESE 23:23:22 10° NE
Cosmos 192 4.3 23:15:52 10° NNW 23:20:48 77° WSW 23:21:44 57° S
CARTOSAT-1 3.7 23:25:07 56° SW 23:25:39 62° W 23:29:57 10° NNW
Cosmos 1862 Rocket 4.1 23:22:37 10° NNW 23:26:48 48° W 23:27:33 43° SW
Cosmos 2181 Rocket 4.0 23:31:38 10° N 23:38:04 81° E 23:39:48 52° SSE
CZ-4C R/B 4.3 23:37:14 10° NNW 23:43:09 28° NE 23:48:28 14° E
IGS 5A 4.2 23:43:40 43° WSW 23:43:47 43° W 23:47:47 10° NNW
Cosmos 2184 Rocket 4.3 23:43:47 44° ESE 23:44:34 47° E 23:50:27 10° NNE
SeaSat 1 3.6 23:43:30 28° E 23:44:35 31° NE 23:48:54 10° N
NOSS 2-3 (C) 3.8 23:44:46 68° SSW 23:45:25 87° SE 23:51:00 10° NE
Cosmos 1269 Rocket 3.9 23:40:31 10° NNW 23:45:50 75° WSW 23:46:29 65° SSW
TSX-5 4.5 23:46:54 67° SSE 23:47:29 75° ESE 23:54:01 10° NNE
H-2A R/B 3.0 23:46:30 34° SW 23:47:55 40° W 23:53:02 10° NNW
Cosmos 2237 Rocket 3.2 23:46:20 10° NW 23:51:27 35° WSW 23:52:39 32° SW
FALCON 9 R/B 3.1 23:31:42 10° W 23:51:59 64° SSW 23:54:02 47° SE
Meteor 1-26 Rocket 4.1 23:46:50 10° N 23:52:29 75° E 23:53:14 65° SE
Cosmos 1869 Rocket 3.6 23:53:42 75° WNW 23:53:42 75° WNW 23:58:07 10° N
